GALAXY 23 (G-23)        
1 27854U 03034A   19260.67216529  .00000008  00000-0  00000+0 0  9999
2 27854   0.0120 198.4535 0002980 333.0064 305.8417  1.00271684 63831
BLOCK DM-SL R/B         
1 27855U 03034B   19260.83146944 -.00000100  00000-0 -45278-3 0  9996
2 27855   0.2140  88.1815 7137436 321.7913 262.1984  2.24643106132303